When you browse on this site, cookies collect data to enhance your experience and personalize the content and advertising you see.
Visit our Privacy Policy to learn more. By continuing to use the site, you agree to this use of cookies and data.
  • En España
  • Lista de países
  • Para 7 días
  • Temperatura del agua
  • El tiempo en el mapa
  • Informadores
  • user-avatar
    Iniciar sesión

    Tiempo cada hora Salta

    Hoy, 17 Octubre, Jueves

    Tiempo Temperatura Precipitaciones Viento Presión Humedad
    00:00 +11°C° 0 mm 0 mps 649 mmHg 76%
    01:00 +10°C° 0 mm 0 mps 649 mmHg 77%
    02:00 +10°C° 0 mm 0 mps 649 mmHg 77%
    03:00 +10°C° 0 mm 0 mps 649 mmHg 77%
    04:00 +10°C° 0 mm 0 mps 649 mmHg 76%
    05:00 +10°C° 0 mm 0 mps 649 mmHg 75%
    06:00 +12°C° 0 mm 0 mps 650 mmHg 69%
    07:00 +14°C° 0 mm 0 mps 651 mmHg 62%
    08:00 +18°C° 0 mm 1 mps 652 mmHg 55%
    09:00 +19°C° 0 mm 1 mps 652 mmHg 51%
    10:00 +20°C° 0 mm 2 mps 652 mmHg 46%
    11:00 +23°C° 0 mm 2 mps 652 mmHg 42%
    12:00 +24°C° 0 mm 2 mps 652 mmHg 41%
    13:00 +25°C° 0 mm 3 mps 651 mmHg 40%
    14:00 +25°C° 0 mm 3 mps 650 mmHg 39%
    15:00 +24°C° 0 mm 3 mps 650 mmHg 43%
    16:00 +22°C° 0 mm 4 mps 650 mmHg 46%
    17:00 +21°C° 0 mm 4 mps 649 mmHg 49%
    18:00 +20°C° 0 mm 3 mps 650 mmHg 55%
    19:00 +18°C° 0 mm 2 mps 650 mmHg 60%
    20:00 +17°C° 0 mm 2 mps 651 mmHg 65%
    21:00 +18°C° 0 mm 1 mps 651 mmHg 66%
    22:00 +16°C° 0 mm 1 mps 651 mmHg 67%
    23:00 +16°C° 0 mm 1 mps 652 mmHg 68%

    Mañana, 18 Octubre, Viernes

    Tiempo Temperatura Precipitaciones Viento Presión Humedad
    00:00 +15°C° 0 mm 1 mps 651 mmHg 70%
    01:00 +15°C° 0 mm 1 mps 651 mmHg 73%
    02:00 +14°C° 0 mm 1 mps 651 mmHg 75%
    03:00 +14°C° 0 mm 1 mps 651 mmHg 76%
    04:00 +13°C° 0 mm 1 mps 651 mmHg 76%
    05:00 +13°C° 0 mm 1 mps 651 mmHg 77%
    06:00 +14°C° 0 mm 1 mps 652 mmHg 74%
    07:00 +15°C° 0 mm 1 mps 652 mmHg 70%
    08:00 +16°C° 0 mm 1 mps 653 mmHg 67%
    09:00 +18°C° 0 mm 1 mps 653 mmHg 64%
    10:00 +18°C° 0 mm 2 mps 653 mmHg 61%
    11:00 +19°C° 0 mm 2 mps 653 mmHg 58%
    12:00 +19°C° 0 mm 2 mps 652 mmHg 59%
    13:00 +19°C° 0 mm 2 mps 651 mmHg 60%
    14:00 +19°C° 0 mm 2 mps 651 mmHg 61%
    15:00 +18°C° 0 mm 2 mps 650 mmHg 63%
    16:00 +18°C° 0 mm 2 mps 650 mmHg 65%
    17:00 +17°C° 0 mm 2 mps 650 mmHg 68%
    18:00 +17°C° 0 mm 2 mps 650 mmHg 71%
    19:00 +16°C° 0 mm 1 mps 651 mmHg 73%
    20:00 +16°C° 0 mm 1 mps 652 mmHg 76%
    21:00 +15°C° 0 mm 1 mps 652 mmHg 77%
    22:00 +15°C° 0 mm 1 mps 653 mmHg 79%
    23:00 +15°C° 0 mm 1 mps 653 mmHg 80%

    Pasado mañana, 19 Octubre, Sábado

    Tiempo Temperatura Precipitaciones Viento Presión Humedad
    00:00 +15°C° 0 mm 1 mps 653 mmHg 81%
    01:00 +14°C° 0 mm 1 mps 653 mmHg 82%
    02:00 +14°C° 0 mm 1 mps 652 mmHg 83%
    03:00 +14°C° 0.1 mm 1 mps 652 mmHg 84%
    04:00 +14°C° 0.1 mm 1 mps 652 mmHg 86%
    05:00 +14°C° 0.1 mm 1 mps 652 mmHg 88%
    06:00 +14°C° 0 mm 1 mps 653 mmHg 84%
    07:00 +15°C° 0 mm 1 mps 653 mmHg 81%
    08:00 +15°C° 0 mm 1 mps 654 mmHg 77%
    09:00 +16°C° 0 mm 1 mps 653 mmHg 72%
    10:00 +18°C° 0 mm 2 mps 653 mmHg 66%
    11:00 +19°C° 0 mm 2 mps 653 mmHg 61%
    12:00 +19°C° 0 mm 2 mps 653 mmHg 60%
    13:00 +19°C° 0 mm 2 mps 652 mmHg 58%
    14:00 +20°C° 0 mm 2 mps 651 mmHg 57%
    15:00 +19°C° 0 mm 2 mps 651 mmHg 60%
    16:00 +19°C° 0 mm 2 mps 650 mmHg 62%
    17:00 +19°C° 0 mm 2 mps 650 mmHg 65%
    18:00 +18°C° 0 mm 2 mps 650 mmHg 71%
    19:00 +17°C° 0 mm 2 mps 650 mmHg 77%
    20:00 +16°C° 0 mm 1 mps 651 mmHg 83%
    21:00 +16°C° 0 mm 1 mps 650 mmHg 85%
    22:00 +15°C° 0 mm 1 mps 650 mmHg 86%
    23:00 +15°C° 0 mm 1 mps 650 mmHg 87%

    20 Octubre, Domingo

    Tiempo Temperatura Precipitaciones Viento Presión Humedad
    00:00 +15°C° 0 mm 1 mps 650 mmHg 88%
    01:00 +14°C° 0 mm 1 mps 650 mmHg 89%
    02:00 +13°C° 0 mm 0 mps 649 mmHg 89%
    03:00 +13°C° 0 mm 0 mps 649 mmHg 89%
    04:00 +13°C° 0 mm 0 mps 649 mmHg 88%
    05:00 +13°C° 0 mm 0 mps 649 mmHg 88%
    06:00 +15°C° 0 mm 1 mps 650 mmHg 83%
    07:00 +16°C° 0 mm 1 mps 650 mmHg 79%
    08:00 +18°C° 0 mm 1 mps 650 mmHg 74%
    09:00 +18°C° 0 mm 1 mps 650 mmHg 73%
    10:00 +18°C° 0 mm 2 mps 650 mmHg 72%
    11:00 +18°C° 0 mm 2 mps 650 mmHg 71%
    12:00 +18°C° 0 mm 2 mps 649 mmHg 70%
    13:00 +19°C° 0 mm 2 mps 649 mmHg 68%
    14:00 +19°C° 0 mm 2 mps 649 mmHg 66%
    15:00 +19°C° 0 mm 2 mps 649 mmHg 67%
    16:00 +18°C° 0 mm 2 mps 649 mmHg 68%
    17:00 +19°C° 0 mm 1 mps 649 mmHg 69%
    18:00 +18°C° 0 mm 1 mps 649 mmHg 73%
    19:00 +16°C° 0 mm 1 mps 650 mmHg 76%
    20:00 +15°C° 0 mm 1 mps 650 mmHg 80%
    21:00 +15°C° 0 mm 1 mps 651 mmHg 80%
    22:00 +15°C° 0 mm 1 mps 651 mmHg 80%
    23:00 +15°C° 0 mm 1 mps 652 mmHg 80%

    21 Octubre, Lunes

    Tiempo Temperatura Precipitaciones Viento Presión Humedad
    00:00 +15°C° 0 mm 1 mps 651 mmHg 80%
    01:00 +15°C° 0 mm 1 mps 651 mmHg 81%
    02:00 +14°C° 0 mm 1 mps 651 mmHg 81%
    03:00 +14°C° 0 mm 1 mps 651 mmHg 82%
    04:00 +13°C° 0 mm 1 mps 651 mmHg 82%
    05:00 +13°C° 0 mm 1 mps 651 mmHg 83%
    06:00 +15°C° 0 mm 1 mps 652 mmHg 72%
    07:00 +18°C° 0 mm 1 mps 653 mmHg 61%
    08:00 +20°C° 0 mm 1 mps 654 mmHg 49%
    09:00 +21°C° 0 mm 1 mps 654 mmHg 43%
    10:00 +23°C° 0 mm 2 mps 654 mmHg 36%
    11:00 +24°C° 0 mm 3 mps 654 mmHg 29%
    12:00 +25°C° 0 mm 3 mps 654 mmHg 29%
    13:00 +25°C° 0 mm 4 mps 653 mmHg 30%
    14:00 +26°C° 0 mm 4 mps 653 mmHg 30%
    15:00 +25°C° 0 mm 4 mps 652 mmHg 34%
    16:00 +24°C° 0 mm 3 mps 652 mmHg 39%
    17:00 +22°C° 0 mm 3 mps 651 mmHg 43%
    18:00 +21°C° 0 mm 2 mps 652 mmHg 46%
    19:00 +20°C° 0 mm 2 mps 652 mmHg 49%
    20:00 +20°C° 0 mm 1 mps 652 mmHg 53%
    21:00 +19°C° 0 mm 1 mps 653 mmHg 52%
    22:00 +19°C° 0 mm 1 mps 653 mmHg 52%
    23:00 +18°C° 0 mm 1 mps 653 mmHg 52%

    22 Octubre, Martes

    Tiempo Temperatura Precipitaciones Viento Presión Humedad
    00:00 +18°C° 0 mm 1 mps 653 mmHg 53%
    01:00 +16°C° 0 mm 1 mps 653 mmHg 54%
    02:00 +15°C° 0 mm 1 mps 652 mmHg 55%
    03:00 +15°C° 0 mm 1 mps 652 mmHg 56%
    04:00 +15°C° 0 mm 1 mps 652 mmHg 58%
    05:00 +14°C° 0 mm 1 mps 653 mmHg 60%
    06:00 +15°C° 0 mm 1 mps 653 mmHg 58%
    07:00 +16°C° 0 mm 1 mps 653 mmHg 56%
    08:00 +16°C° 0 mm 1 mps 654 mmHg 55%
    09:00 +18°C° 0 mm 2 mps 654 mmHg 51%
    10:00 +19°C° 0 mm 3 mps 654 mmHg 47%
    11:00 +21°C° 0 mm 3 mps 653 mmHg 43%
    12:00 +22°C° 0 mm 3 mps 653 mmHg 41%
    13:00 +22°C° 0 mm 3 mps 652 mmHg 40%
    14:00 +24°C° 0 mm 3 mps 651 mmHg 38%
    15:00 +24°C° 0 mm 3 mps 651 mmHg 39%
    16:00 +24°C° 0 mm 3 mps 650 mmHg 40%
    17:00 +22°C° 0 mm 3 mps 650 mmHg 41%
    18:00 +21°C° 0 mm 2 mps 650 mmHg 45%
    19:00 +20°C° 0 mm 2 mps 650 mmHg 50%
    20:00 +19°C° 0 mm 1 mps 650 mmHg 55%
    21:00 +18°C° 0 mm 1 mps 650 mmHg 58%
    22:00 +18°C° 0 mm 1 mps 650 mmHg 61%
    23:00 +16°C° 0 mm 1 mps 651 mmHg 64%
    Mostrar más